Regional Weather Roundup
Issued by NWS Charleston, WV

Home | Current Version | Previous Version | Graphics & Text | Print | Product List | Glossary On
Versions: 1 2 3 4 5 6 7 8 9 10 11 12 13 14 15 16 17 18 19 20 21 22 23 24 25 26 27 28 29 30 31 32 33 34 35 36 37 38 39 40 41 42 43 44 45 46 47 48 49 50
000
ASUS41 KRLX 280110
RWRRLX
West Virginia Regional Weather Roundup
National Weather Service Charleston WV
900 PM EDT FRI MAR 27 2015

Note: "fair" indicates few or no clouds below 12,000 feet with no
significant weather and/or obstructions to visibility.

WVZ003-280200-
Northern Panhandle of West Virginia

CITY           SKY/WX    TMP DP  RH WIND       PRES   REMARKS
WHEELING       CLOUDY    26  17  68 NW8       29.95R
$$

WVZ009-280200-
Northwest West Virginia

CITY           SKY/WX    TMP DP  RH WIND       PRES   REMARKS
PARKERSBURG    CLOUDY    29  17  61 NW9       30.03R
$$

WVZ006-280200-
Western West Virginia

CITY           SKY/WX    TMP DP  RH WIND       PRES   REMARKS
HUNTINGTON     CLOUDY    32  21  64 N6        30.01R
$$

WVZ015-280200-
West Central West Virginia

CITY           SKY/WX    TMP DP  RH WIND       PRES   REMARKS
CHARLESTON     FLURRIES  34  21  59 N14G20    29.97R
$$

WVZ022-031-280200-
North Central West Virginia

CITY           SKY/WX    TMP DP  RH WIND       PRES   REMARKS
CLARKSBURG     LGT SNOW  30  26  85 N9        29.92R FOG
MORGANTOWN     LGT SNOW  30  23  75 NW6       29.93R
$$

WVZ025-035-042-045-280200-
Southern West Virginia

CITY           SKY/WX    TMP DP  RH WIND       PRES   REMARKS
BECKLEY        FLURRIES  30  22  72 N10       29.86R
LOGAN          FLURRIES  32  25  74 NW10      29.90R
BLUEFIELD      LGT SNOW  34  24  67 N13G20    29.83R
LEWISBURG      CLOUDY    36  23  59 N9G16     29.84R
$$

WVZ047-280200-
Northern Mountains of West Virginia

CITY           SKY/WX    TMP DP  RH WIND       PRES   REMARKS
ELKINS         LGT SNOW  30  26  85 NW9       29.87R FOG
$$

WVZ052-280200-
Eastern Panhandle of West Virginia

CITY           SKY/WX    TMP DP  RH WIND       PRES   REMARKS
MARTINSBURG    CLOUDY    42  22  44 NW9       29.85R
PETERSBURG     FLURRIES  38  24  56 NW7       29.88R
$$


USA.gov is the U.S. government's official web portal to all federal, state and local government web resources and services.